When you browse on this site, cookies collect data to enhance your experience and personalize the content and advertising you see.
Visit our Privacy Policy to learn more. By continuing to use the site, you agree to this use of cookies and data.
  • In Austria
  • List of Countries
  • For 7 days
  • Water Temperature
  • Weather Map
  • News
  • Weather Widgets
  • user-avatar
    Login

    Hourly Weather Konstantyna

    Today, 6 June, Saturday

    Time Temperature Precipitation Wind Pressure Humidity
    00:00 +16°C° 0 mm 1 mps 708 mmHg 65%
    01:00 +16°C° 0 mm 1 mps 708 mmHg 66%
    02:00 +14°C° 0 mm 0 mps 708 mmHg 67%
    03:00 +14°C° 0 mm 0 mps 707 mmHg 68%
    04:00 +15°C° 0 mm 0 mps 708 mmHg 64%
    05:00 +16°C° 0 mm 0 mps 708 mmHg 60%
    06:00 +17°C° 0 mm 0 mps 709 mmHg 56%
    07:00 +21°C° 0 mm 1 mps 709 mmHg 49%
    08:00 +23°C° 0 mm 1 mps 709 mmHg 42%
    09:00 +25°C° 0 mm 2 mps 710 mmHg 36%
    10:00 +26°C° 0 mm 2 mps 710 mmHg 32%
    11:00 +28°C° 0 mm 2 mps 710 mmHg 29%
    12:00 +29°C° 0 mm 2 mps 710 mmHg 26%
    13:00 +30°C° 0 mm 2 mps 710 mmHg 24%
    14:00 +30°C° 0 mm 2 mps 709 mmHg 22%
    15:00 +31°C° 0 mm 3 mps 709 mmHg 21%
    16:00 +30°C° 0 mm 3 mps 708 mmHg 26%
    17:00 +28°C° 0 mm 3 mps 708 mmHg 32%
    18:00 +27°C° 0 mm 2 mps 708 mmHg 37%
    19:00 +26°C° 0 mm 2 mps 708 mmHg 38%
    20:00 +25°C° 0 mm 2 mps 708 mmHg 39%
    21:00 +24°C° 0 mm 1 mps 707 mmHg 40%
    22:00 +24°C° 0 mm 1 mps 707 mmHg 38%
    23:00 +24°C° 0 mm 1 mps 706 mmHg 36%

    Tomorrow, 7 June, Sunday

    Time Temperature Precipitation Wind Pressure Humidity
    00:00 +23°C° 0 mm 1 mps 706 mmHg 33%
    01:00 +24°C° 0 mm 1 mps 706 mmHg 33%
    02:00 +24°C° 0 mm 1 mps 706 mmHg 32%
    03:00 +24°C° 0 mm 2 mps 706 mmHg 31%
    04:00 +24°C° 0.2 mm 1 mps 706 mmHg 35%
    05:00 +25°C° 0.2 mm 1 mps 706 mmHg 39%
    06:00 +25°C° 0.2 mm 1 mps 706 mmHg 43%
    07:00 +26°C° 0.2 mm 2 mps 706 mmHg 40%
    08:00 +27°C° 0.2 mm 2 mps 707 mmHg 37%
    09:00 +29°C° 0.2 mm 2 mps 707 mmHg 34%
    10:00 +29°C° 0 mm 3 mps 707 mmHg 34%
    11:00 +30°C° 0 mm 4 mps 707 mmHg 34%
    12:00 +30°C° 0 mm 5 mps 707 mmHg 34%
    13:00 +30°C° 0 mm 5 mps 707 mmHg 36%
    14:00 +29°C° 0 mm 6 mps 706 mmHg 38%
    15:00 +28°C° 0 mm 6 mps 706 mmHg 40%
    16:00 +27°C° 0 mm 6 mps 706 mmHg 44%
    17:00 +25°C° 0 mm 5 mps 706 mmHg 48%
    18:00 +23°C° 0 mm 5 mps 706 mmHg 52%
    19:00 +21°C° 0 mm 3 mps 707 mmHg 57%
    20:00 +20°C° 0 mm 2 mps 707 mmHg 62%
    21:00 +20°C° 0 mm 1 mps 708 mmHg 67%
    22:00 +20°C° 0 mm 1 mps 707 mmHg 68%
    23:00 +20°C° 0 mm 1 mps 707 mmHg 68%

    Day after tomorrow, 8 June, Monday

    Time Temperature Precipitation Wind Pressure Humidity
    00:00 +20°C° 0 mm 1 mps 707 mmHg 68%
    01:00 +19°C° 0 mm 1 mps 706 mmHg 69%
    02:00 +19°C° 0 mm 1 mps 706 mmHg 69%
    03:00 +19°C° 0 mm 1 mps 705 mmHg 70%
    04:00 +20°C° 0 mm 1 mps 706 mmHg 66%
    05:00 +20°C° 0 mm 1 mps 706 mmHg 63%
    06:00 +21°C° 0 mm 1 mps 706 mmHg 60%
    07:00 +23°C° 0 mm 1 mps 706 mmHg 53%
    08:00 +25°C° 0 mm 1 mps 707 mmHg 47%
    09:00 +27°C° 0 mm 1 mps 707 mmHg 41%
    10:00 +28°C° 0 mm 1 mps 707 mmHg 36%
    11:00 +29°C° 0 mm 2 mps 707 mmHg 32%
    12:00 +30°C° 0 mm 2 mps 707 mmHg 28%
    13:00 +29°C° 0 mm 3 mps 707 mmHg 35%
    14:00 +28°C° 0 mm 4 mps 706 mmHg 43%
    15:00 +26°C° 0 mm 4 mps 706 mmHg 50%
    16:00 +25°C° 0.2 mm 4 mps 706 mmHg 56%
    17:00 +23°C° 0.2 mm 4 mps 706 mmHg 62%
    18:00 +21°C° 0.2 mm 4 mps 706 mmHg 68%
    19:00 +20°C° 0.6 mm 3 mps 707 mmHg 73%
    20:00 +19°C° 0.6 mm 2 mps 707 mmHg 79%
    21:00 +19°C° 0.6 mm 1 mps 707 mmHg 84%
    22:00 +18°C° 0.3 mm 1 mps 707 mmHg 84%
    23:00 +18°C° 0.3 mm 1 mps 707 mmHg 83%

    9 June, Tuesday

    Time Temperature Precipitation Wind Pressure Humidity
    00:00 +18°C° 0.3 mm 1 mps 707 mmHg 83%
    01:00 +18°C° 0 mm 1 mps 707 mmHg 83%
    02:00 +16°C° 0 mm 0 mps 707 mmHg 83%
    03:00 +16°C° 0 mm 0 mps 707 mmHg 83%
    04:00 +18°C° 0 mm 1 mps 707 mmHg 79%
    05:00 +19°C° 0 mm 1 mps 707 mmHg 75%
    06:00 +20°C° 0 mm 1 mps 707 mmHg 71%
    07:00 +21°C° 0 mm 1 mps 708 mmHg 65%
    08:00 +22°C° 0 mm 1 mps 708 mmHg 59%
    09:00 +24°C° 0 mm 2 mps 708 mmHg 53%
    10:00 +25°C° 0 mm 2 mps 708 mmHg 49%
    11:00 +26°C° 0 mm 2 mps 708 mmHg 46%
    12:00 +27°C° 0 mm 2 mps 709 mmHg 42%
    13:00 +26°C° 0.1 mm 3 mps 708 mmHg 45%
    14:00 +26°C° 0.1 mm 4 mps 708 mmHg 48%
    15:00 +26°C° 0.1 mm 5 mps 708 mmHg 51%
    16:00 +23°C° 0.1 mm 5 mps 708 mmHg 57%
    17:00 +21°C° 0.1 mm 5 mps 708 mmHg 63%
    18:00 +20°C° 0.1 mm 5 mps 708 mmHg 70%
    19:00 +19°C° 0.1 mm 4 mps 709 mmHg 75%
    20:00 +18°C° 0.1 mm 2 mps 710 mmHg 80%
    21:00 +18°C° 0.1 mm 1 mps 710 mmHg 85%
    22:00 +18°C° 0 mm 1 mps 710 mmHg 86%
    23:00 +16°C° 0 mm 1 mps 710 mmHg 87%

    10 June, Wednesday

    Time Temperature Precipitation Wind Pressure Humidity
    00:00 +15°C° 0 mm 0 mps 710 mmHg 88%
    01:00 +15°C° 0 mm 0 mps 709 mmHg 88%
    02:00 +14°C° 0 mm 0 mps 709 mmHg 89%
    03:00 +14°C° 0 mm 0 mps 708 mmHg 89%
    04:00 +16°C° 0 mm 1 mps 709 mmHg 84%
    05:00 +18°C° 0 mm 1 mps 709 mmHg 80%
    06:00 +18°C° 0 mm 1 mps 710 mmHg 75%
    07:00 +20°C° 0 mm 1 mps 710 mmHg 66%
    08:00 +22°C° 0 mm 1 mps 710 mmHg 57%
    09:00 +23°C° 0 mm 1 mps 711 mmHg 47%
    10:00 +24°C° 0.1 mm 1 mps 711 mmHg 45%
    11:00 +25°C° 0.1 mm 2 mps 711 mmHg 43%
    12:00 +26°C° 0.1 mm 2 mps 711 mmHg 41%
    13:00 +25°C° 0.4 mm 2 mps 710 mmHg 47%
    14:00 +24°C° 0.4 mm 3 mps 710 mmHg 53%
    15:00 +22°C° 0.4 mm 4 mps 710 mmHg 58%
    16:00 +21°C° 0.4 mm 4 mps 710 mmHg 62%
    17:00 +20°C° 0.4 mm 3 mps 710 mmHg 66%
    18:00 +19°C° 0.4 mm 3 mps 710 mmHg 70%
    19:00 +19°C° 0 mm 2 mps 710 mmHg 73%
    20:00 +18°C° 0 mm 2 mps 710 mmHg 75%
    21:00 +18°C° 0 mm 1 mps 710 mmHg 78%
    22:00 +18°C° 0.1 mm 1 mps 710 mmHg 79%
    23:00 +18°C° 0.1 mm 1 mps 710 mmHg 79%

    11 June, Thursday

    Time Temperature Precipitation Wind Pressure Humidity
    00:00 +16°C° 0.1 mm 1 mps 710 mmHg 79%
    01:00 +15°C° 0 mm 0 mps 709 mmHg 81%
    02:00 +15°C° 0 mm 0 mps 709 mmHg 82%
    03:00 +15°C° 0 mm 0 mps 708 mmHg 84%
    04:00 +15°C° 0 mm 0 mps 709 mmHg 81%
    05:00 +16°C° 0 mm 0 mps 709 mmHg 78%
    06:00 +17°C° 0 mm 0 mps 709 mmHg 75%
    07:00 +20°C° 0 mm 1 mps 709 mmHg 68%
    08:00 +21°C° 0 mm 2 mps 710 mmHg 62%
    09:00 +23°C° 0 mm 2 mps 710 mmHg 56%
    10:00 +24°C° 0 mm 2 mps 710 mmHg 51%
    11:00 +25°C° 0 mm 3 mps 710 mmHg 47%
    12:00 +26°C° 0 mm 3 mps 710 mmHg 42%
    13:00 +26°C° 0 mm 4 mps 709 mmHg 43%
    14:00 +26°C° 0 mm 4 mps 709 mmHg 44%
    15:00 +26°C° 0 mm 5 mps 709 mmHg 45%
    16:00 +23°C° 0 mm 5 mps 708 mmHg 48%
    17:00 +22°C° 0 mm 4 mps 708 mmHg 52%
    18:00 +21°C° 0 mm 4 mps 708 mmHg 55%
    19:00 +20°C° 0 mm 3 mps 708 mmHg 60%
    20:00 +19°C° 0 mm 2 mps 708 mmHg 65%
    21:00 +18°C° 0 mm 1 mps 708 mmHg 70%
    22:00 +18°C° 0 mm 1 mps 708 mmHg 71%
    23:00 +16°C° 0 mm 0 mps 708 mmHg 72%
    Show more